Terminal Aerodrome Forecast
Issued by NWS La Crosse, WI

Home | Current Version | Previous Version | Text Only | Print | Product List | Glossary On
Versions: 1 2 3 4 5 6 7 8 9 10 11 12 13 14 15 16 17 18 19 20 21 22 23 24 25 26 27 28 29 30 31 32 33 34 35 36 37 38 39 40 41 42 43 44 45 46 47 48 49 50
000
FTUS43 KARX 011338 AAA
TAFRST
TAF AMD
KRST 011338Z 0114/0212 26010KT P6SM OVC006
      TEMPO 0114/0116 4SM -SHRA OVC010
     FM011600 28010KT P6SM OVC012
     FM011700 29010KT P6SM BKN025
     FM011900 29012KT P6SM SCT025
     FM020000 25006KT P6SM SKC=

USA.gov is the U.S. government's official web portal to all federal, state and local government web resources and services.